GEFSNGP_500_meanwind_000.txt.gz
Wind_Speed
37 43 48 53 58 62 68 72 74 72 71 70 64 57 53 51 52 48 49 48 46 45 43 40 37 33 31 31 31 32 33 34 34 33 33 33 32 29 25 23 22 21 15 16
39 45 51 56 60 65 70 72 73 73 70 65 59 54 50 50 50 47 48 47 48 47 44 42 39 35 34 34 35 35 36 36 36 33 33 33 32 30 25 22 21 20 15 15
45 50 55 58 62 67 71 74 73 72 68 63 56 52 49 49 48 45 45 47 49 49 47 45 42 40 38 38 39 39 40 40 39 36 34 34 33 31 28 24 21 20 16 18
49 53 58 61 64 69 74 71 70 68 64 57 52 50 49 48 46 45 47 49 51 51 49 47 46 45 44 44 44 43 42 41 40 39 38 36 35 34 31 27 25 22 19 21
53 57 60 63 67 72 75 72 70 65 56 49 46 47 48 47 45 46 48 51 53 53 52 51 51 50 50 50 49 48 46 45 44 42 39 37 36 36 34 31 29 27 25 25
55 58 61 65 68 73 75 70 67 57 49 46 45 45 46 47 47 48 50 53 54 54 54 55 55 55 56 55 54 54 52 50 47 44 41 40 37 37 36 34 32 32 31 30
57 59 62 66 70 73 71 70 65 52 46 46 45 46 48 49 51 52 54 56 56 57 58 58 59 59 59 59 58 57 56 53 51 48 45 44 41 39 38 37 36 35 36 36
59 61 64 67 70 72 72 70 60 48 43 44 45 46 49 53 55 56 57 58 58 58 59 60 61 62 61 60 59 58 57 55 53 51 48 47 45 43 42 41 39 38 38 39
59 61 64 67 70 75 73 67 56 43 41 43 45 48 52 56 59 59 58 58 59 61 62 61 59 57 55 54 53 51 49 48 46 45 46 47 47 46 46 45 44 42 41 41
60 62 65 68 72 75 71 66 54 43 41 43 47 51 55 59 60 59 58 60 61 58 53 51 51 52 52 53 52 50 47 43 40 38 37 38 40 44 47 49 48 47 45 45
60 62 65 68 72 74 72 66 54 44 42 44 48 54 57 60 60 60 61 58 51 47 49 51 52 52 52 53 53 52 49 44 39 36 34 33 33 33 37 43 48 50 50 49
60 63 65 68 71 73 71 65 54 44 42 45 50 56 59 61 60 60 54 45 43 46 48 50 51 52 53 53 53 51 49 45 40 36 35 35 34 33 31 31 35 40 48 52
61 63 65 68 70 72 70 60 49 43 43 46 52 57 60 60 59 52 42 41 43 45 47 49 52 55 56 55 53 51 49 46 42 39 37 36 34 32 31 29 28 29 32 39
61 63 64 67 70 71 66 56 48 44 44 48 54 58 59 57 50 40 38 41 43 45 46 49 52 55 58 58 56 53 50 48 46 44 41 38 35 33 30 27 26 26 26 27
61 61 63 65 69 70 63 53 46 44 46 51 55 57 56 50 39 35 37 40 43 46 48 50 53 55 59 60 59 55 51 50 50 48 45 41 38 35 32 30 28 27 26 25
59 60 61 65 70 67 57 48 43 44 48 53 54 54 51 42 34 35 38 39 42 45 48 51 54 57 59 61 60 58 55 53 54 52 49 45 41 38 35 33 31 29 28 27
57 58 61 65 67 60 50 44 43 46 50 52 52 49 43 34 33 36 38 39 42 44 47 51 55 58 60 60 62 61 57 53 53 53 53 49 44 41 38 35 33 32 31 29
56 57 60 63 62 53 46 43 44 47 50 51 49 45 36 31 32 34 37 40 43 45 48 52 56 59 61 62 64 62 57 53 53 53 52 48 44 40 37 35 34 32 31 30
54 56 58 61 57 49 44 44 46 47 49 49 47 40 32 29 30 33 36 39 42 44 47 51 54 58 61 63 64 62 59 59 58 58 56 50 45 41 39 37 35 31 28 27
53 54 57 59 53 46 44 45 46 48 48 47 44 35 28 28 30 33 36 39 43 45 47 49 52 56 60 61 64 66 63 61 60 60 57 52 47 44 42 39 34 30 26 22
51 53 56 55 49 44 43 44 46 48 47 45 41 31 26 26 28 32 35 39 43 45 47 48 51 55 58 61 66 67 62 59 60 62 60 55 51 48 46 41 36 31 26 20
50 52 54 52 45 41 42 44 47 47 45 43 38 28 24 25 28 32 36 38 40 43 46 47 49 53 58 60 63 66 62 58 58 60 63 63 59 54 50 46 40 35 30 24
48 51 52 48 43 40 41 45 46 45 43 41 33 26 23 24 28 33 36 37 38 42 45 45 46 51 56 58 60 64 63 59 56 55 58 61 63 62 58 54 49 43 37 32
47 50 50 46 40 38 41 44 45 43 41 38 28 22 20 23 28 33 35 35 37 41 43 43 44 47 52 56 57 60 64 61 56 54 55 57 59 60 61 61 59 56 51 47
46 49 48 42 38 37 41 43 43 41 40 33 23 19 21 24 28 31 33 32 35 40 41 41 41 42 46 52 57 58 60 63 58 53 53 54 56 57 57 57 57 58 58 57
46 47 45 39 35 37 40 42 41 39 37 28 19 17 19 22 26 30 31 32 35 38 40 39 38 39 42 48 54 56 56 58 61 57 53 52 53 54 54 54 54 53 52 51
45 46 42 35 33 36 39 40 39 38 34 24 15 14 17 20 24 28 30 32 34 37 39 39 38 37 39 44 49 53 55 55 56 59 58 54 51 51 52 52 52 52 51 49

GEFSNGP_500_meanwind_006.txt.gz
Wind_Speed
31 35 40 47 52 55 59 64 67 70 73 75 76 74 67 59 52 49 52 57 61 63 64 64 63 61 60 59 57 56 54 53 52 52 51 50 49 48 46 44 42 40 38 37
33 37 41 48 53 58 63 67 69 70 73 76 76 72 65 56 51 50 55 61 64 65 65 64 61 57 54 53 52 52 52 51 50 49 48 47 46 46 47 46 44 42 40 38
36 39 44 51 57 62 67 68 70 71 74 77 75 69 62 54 51 54 59 65 67 67 64 58 55 54 54 54 55 55 54 53 52 50 48 45 43 42 43 44 44 42 40 38
38 43 49 54 59 65 68 68 71 72 75 77 74 65 57 53 53 57 62 66 66 62 56 53 53 53 55 56 57 58 58 56 54 51 48 44 41 39 38 40 42 41 40 39
41 46 51 57 63 67 69 68 71 72 75 75 70 61 55 54 56 60 64 65 61 56 52 52 52 54 56 58 59 60 59 57 54 51 48 43 39 35 33 34 37 39 40 40
44 49 55 60 64 68 70 69 71 72 74 72 66 59 56 56 59 62 64 60 55 52 51 51 52 54 57 59 60 61 60 58 54 52 50 46 40 34 30 29 29 33 38 41
46 50 56 62 67 70 69 69 70 72 73 69 61 56 57 59 61 63 60 55 51 50 51 51 53 56 58 60 61 62 62 59 55 52 50 48 44 38 32 28 26 26 31 37
47 51 58 63 68 69 68 69 69 71 71 64 58 56 58 61 61 61 55 51 49 49 51 52 54 57 59 61 63 64 62 59 56 53 50 48 45 42 37 31 27 24 24 29
47 52 58 64 68 68 68 67 68 70 68 61 56 56 59 60 61 58 52 49 48 49 50 52 55 58 60 62 64 64 62 59 56 53 51 49 46 43 39 35 30 26 23 23
48 54 60 66 69 68 67 66 68 69 65 59 55 57 60 60 59 54 49 46 47 49 50 52 55 58 60 63 65 63 61 59 58 57 55 52 49 45 40 36 32 28 25 22
49 55 61 66 68 67 66 66 68 67 62 58 56 58 59 59 56 51 46 45 47 50 52 53 55 58 61 63 65 62 59 59 60 62 60 55 50 46 41 35 32 29 26 22
50 56 62 66 68 66 64 64 66 66 61 57 57 58 59 58 53 47 44 45 48 51 52 53 55 58 61 64 66 62 58 58 60 63 63 60 53 46 42 37 32 29 27 24
50 57 62 66 66 65 63 64 65 65 60 56 57 58 58 55 50 44 43 46 48 50 52 53 55 58 62 65 66 61 58 58 60 63 65 63 56 48 40 36 32 28 26 24
52 58 63 66 65 63 62 63 64 63 58 57 57 57 57 53 47 42 43 46 48 49 51 51 53 58 62 65 65 61 58 58 60 62 65 66 61 52 43 35 30 27 24 23
53 58 63 65 63 61 60 62 63 61 57 56 56 56 55 50 44 41 42 45 47 48 50 50 52 57 62 64 65 61 57 58 59 61 65 69 67 59 48 38 31 25 22 20
54 59 62 64 61 60 60 61 63 60 56 55 55 55 53 47 41 40 42 44 46 47 48 49 51 56 61 63 64 61 57 58 61 62 63 67 69 66 56 44 35 27 22 18
55 59 62 62 60 58 59 61 61 58 55 54 54 53 50 44 40 40 43 45 46 47 48 48 50 54 59 62 63 61 58 59 61 62 62 64 67 69 65 54 42 32 25 19
54 58 60 60 58 57 58 60 59 57 54 53 52 51 47 41 38 39 41 43 45 47 48 48 49 52 57 60 61 62 61 59 60 61 62 62 65 67 68 64 56 44 34 26
54 58 60 58 57 57 57 58 58 56 53 51 51 49 45 39 36 37 39 41 43 45 46 46 47 50 54 57 60 62 61 59 58 59 59 60 61 62 64 65 64 60 51 41
55 59 59 57 56 56 56 57 56 54 51 49 49 47 42 37 35 37 39 41 44 45 45 45 45 48 51 55 58 60 60 59 57 56 57 59 60 61 61 62 62 62 60 56
56 59 58 56 54 54 55 56 55 52 49 47 47 45 40 35 33 35 38 41 43 44 44 44 43 45 50 54 56 57 58 58 57 55 56 58 59 60 60 59 59 58 57 57
56 58 57 54 53 53 54 54 53 50 47 45 45 43 38 33 32 33 36 39 40 42 43 43 42 43 48 52 53 54 55 57 57 56 56 57 58 59 59 58 57 56 55 54
55 56 55 53 51 51 52 52 51 49 45 44 43 41 36 32 31 32 34 36 38 40 42 43 42 42 45 49 51 51 52 54 56 57 57 57 58 59 59 59 58 57 55 53
55 55 53 51 50 49 50 50 49 46 43 42 42 40 35 30 28 29 31 33 35 38 41 42 42 40 41 45 48 49 50 51 53 55 56 56 57 58 58 59 59 58 57 55
53 53 51 48 47 47 48 48 47 44 41 40 41 39 34 29 26 27 29 31 32 35 39 40 41 40 39 40 44 46 48 49 50 52 53 53 55 56 57 57 58 58 58 58
52 51 48 46 45 45 46 46 44 42 39 39 39 38 34 28 25 25 26 28 30 32 35 38 39 39 38 37 39 42 44 46 47 49 50 51 52 53 54 56 56 57 57 57
50 48 45 43 42 43 44 44 42 39 37 37 37 37 33 28 24 23 24 26 28 30 32 34 36 37 37 36 36 37 40 42 44 45 47 48 49 51 52 53 54 55 55 55

GEFSNGP_500_meanwind_012.txt.gz
Wind_Speed
27 28 31 36 40 44 48 54 60 67 73 74 74 73 74 73 70 68 67 66 65 60 56 54 53 52 52 54 56 58 58 57 53 51 51 50 48 45 41 37 33 30 30 33
26 29 32 36 41 46 50 56 62 69 74 75 73 73 73 71 69 67 66 65 61 56 53 53 52 52 53 55 58 60 59 55 51 50 50 51 51 48 44 39 34 30 28 29
31 34 35 38 44 48 52 58 65 71 74 75 72 72 72 70 68 66 65 63 57 53 52 52 53 53 54 57 60 61 59 54 51 51 52 53 53 52 48 42 36 31 27 26
35 37 39 41 45 50 55 60 67 72 75 74 72 72 70 69 66 64 64 60 54 51 52 53 53 54 55 60 62 62 58 54 53 53 54 55 55 55 53 47 38 31 27 25
37 39 40 43 48 52 57 62 68 73 74 72 71 71 68 67 65 64 62 56 52 52 53 53 54 54 57 61 63 62 58 54 54 55 56 56 57 58 56 51 41 32 26 23
37 40 43 45 49 54 59 64 69 73 73 71 70 69 68 67 64 63 59 53 52 53 54 54 54 55 58 62 63 61 57 56 57 58 58 58 60 61 59 52 40 30 24 21
39 41 43 47 51 56 60 65 70 72 71 69 69 68 66 64 63 61 56 52 52 53 54 54 55 56 59 62 62 60 58 57 59 60 60 61 64 64 61 50 36 27 21 18
42 44 46 49 52 55 59 64 69 70 69 68 67 66 64 63 61 58 53 51 52 53 54 55 55 56 59 61 60 59 58 58 60 62 63 64 67 66 60 45 31 22 18 16
41 43 45 48 51 56 60 64 68 69 67 66 66 64 62 61 59 56 51 50 51 53 54 55 55 57 59 60 59 57 58 59 61 63 64 67 70 68 60 44 28 19 15 13
41 43 45 48 52 56 59 64 67 67 66 65 64 62 60 59 57 53 49 48 50 52 53 54 55 57 58 58 57 57 58 59 61 63 64 67 71 71 62 47 30 19 13 11
40 42 44 47 52 56 59 63 66 66 64 63 62 60 59 57 55 51 47 47 49 51 52 53 54 56 57 57 56 56 57 59 61 62 63 66 69 73 66 54 38 24 14 10
41 42 44 48 52 55 59 63 66 65 63 62 60 58 57 56 53 49 45 45 48 50 51 52 53 55 56 56 57 56 57 58 60 62 62 65 68 71 70 61 48 32 21 13
40 41 44 48 52 55 58 62 65 64 61 60 59 57 56 54 52 47 43 43 46 49 50 51 51 53 55 55 56 56 57 58 61 62 63 63 66 68 69 67 58 44 30 20
40 41 44 48 52 55 58 62 64 63 60 59 58 56 55 53 50 46 42 41 44 47 49 50 50 52 53 54 55 56 57 58 61 62 63 63 64 65 67 68 65 57 45 31
40 41 44 48 51 54 57 61 63 61 59 58 57 55 54 52 49 45 41 40 43 46 48 49 49 50 51 52 54 55 56 57 60 61 62 62 63 63 64 65 65 63 58 48
40 42 44 48 50 53 57 60 62 60 57 56 55 54 52 51 48 44 40 39 41 44 46 48 48 49 49 51 53 54 55 57 59 60 60 61 62 62 62 62 62 62 61 58
41 42 44 47 49 52 56 59 60 58 56 55 54 53 51 50 48 44 40 38 39 42 45 47 47 47 47 49 51 52 54 55 57 58 58 59 60 61 61 60 60 59 59 58
41 42 43 45 48 52 55 57 58 56 54 53 53 51 50 49 47 44 40 38 39 41 44 46 46 45 46 47 48 50 53 54 55 55 56 58 59 60 60 60 60 58 57 56
40 41 42 45 48 51 54 56 56 54 52 51 51 50 49 47 46 43 40 38 38 40 42 44 44 43 44 44 45 48 50 52 53 53 54 55 56 57 59 59 60 59 58 56
40 41 42 45 48 50 53 55 54 52 50 50 49 49 47 46 45 42 39 36 36 37 39 41 42 42 42 42 43 45 47 48 50 51 52 53 54 55 56 58 59 59 59 57
40 40 42 45 47 49 52 53 53 50 49 48 48 47 46 45 44 42 39 36 35 35 37 39 40 40 40 40 41 42 43 45 47 48 50 51 52 52 53 55 56 58 58 58
40 40 42 45 47 49 51 52 51 49 47 47 46 46 45 44 43 41 38 35 34 34 35 36 37 38 39 39 39 40 41 42 43 45 47 49 50 50 51 52 53 55 56 57
41 41 42 44 46 48 50 51 50 48 45 45 45 44 43 42 41 40 37 35 32 32 32 34 35 36 37 38 38 38 38 39 40 42 44 46 48 49 49 49 50 51 52 54
41 41 42 43 45 47 50 50 50 47 44 43 43 42 42 40 40 39 37 34 31 30 30 31 32 33 35 36 37 37 37 37 37 38 41 43 45 47 48 48 48 48 49 50
41 41 42 42 44 47 50 50 49 46 42 41 41 41 40 39 38 38 36 33 30 29 28 29 30 31 32 34 36 36 37 37 37 37 38 39 41 43 45 46 47 47 47 48
41 41 41 42 45 48 50 50 48 45 41 40 39 39 38 37 36 36 35 33 30 28 27 27 27 28 30 32 33 35 36 37 37 37 37 37 38 39 41 42 44 44 45 46
42 42 42 44 47 50 51 50 47 44 40 38 38 38 37 36 34 34 34 32 30 27 25 25 25 26 27 29 31 33 34 35 36 37 37 36 36 37 37 38 39 41 42 43

GEFSNGP_500_meanwind_018.txt.gz
Wind_Speed
25 27 28 31 34 36 39 42 46 51 55 60 65 70 73 74 74 74 74 73 72 67 62 60 62 63 63 63 61 58 57 57 59 61 63 63 63 64 64 63 60 54 47 40
24 25 27 31 35 37 40 44 48 53 57 61 66 70 73 74 73 73 72 72 70 65 60 60 61 63 63 62 60 57 56 58 61 63 64 64 65 67 67 64 58 49 39 29
30 30 30 34 39 41 43 45 49 54 59 62 68 71 73 74 72 72 72 71 68 62 59 59 61 63 63 61 59 57 57 59 62 64 66 67 68 70 70 64 54 40 27 17
36 35 34 38 41 44 46 47 51 55 59 63 68 72 73 73 72 71 70 69 65 60 57 59 61 63 62 61 59 57 57 59 63 65 67 68 71 73 70 63 50 34 21 9
42 42 40 41 44 47 49 49 52 57 61 64 68 72 72 72 71 70 69 68 63 58 56 58 61 62 61 60 59 57 57 60 63 66 67 69 72 74 71 62 47 33 19 9
45 46 45 46 47 48 51 52 55 58 61 65 68 71 71 71 69 68 68 66 62 57 55 57 60 61 60 60 59 58 58 60 64 66 68 69 72 74 72 63 48 34 21 11
48 48 47 49 50 50 51 53 55 58 61 64 68 71 71 69 68 67 67 65 61 57 55 56 59 60 60 59 59 59 58 60 63 66 68 69 71 74 73 65 51 37 24 14
52 53 53 53 52 51 50 52 54 57 61 64 68 70 70 68 67 66 66 64 60 56 54 55 58 59 59 59 59 59 59 60 62 64 66 68 69 71 72 68 56 42 29 18
51 53 54 55 53 51 50 51 54 57 60 64 67 70 69 67 66 65 64 63 59 55 53 54 57 58 58 58 58 58 58 59 60 63 65 67 68 69 71 70 64 51 37 25
50 54 55 56 54 52 50 51 54 57 60 63 67 69 68 66 65 64 63 62 58 54 53 53 55 57 57 57 57 57 57 57 58 60 63 65 67 68 69 69 68 62 49 35
50 54 56 57 56 54 52 52 54 56 59 63 66 68 68 66 64 63 62 61 57 54 52 52 53 55 55 55 55 56 56 56 57 59 61 64 66 67 68 68 69 66 61 50
50 54 57 58 58 56 53 52 54 56 59 62 65 67 67 65 63 62 61 60 57 53 51 50 51 53 53 54 53 54 54 55 55 57 59 61 64 66 67 67 66 66 64 61
50 54 57 60 60 58 55 54 54 56 59 62 64 66 66 64 62 61 60 59 56 53 50 49 49 51 52 52 52 52 52 53 54 55 56 58 60 63 64 65 65 64 64 63
50 53 57 60 61 59 56 55 55 56 58 61 64 65 66 64 61 60 59 58 55 52 49 47 47 49 50 50 50 50 50 52 53 54 55 56 57 59 62 63 64 64 63 62
50 53 56 59 61 60 58 56 55 55 57 60 63 64 65 63 60 59 58 57 55 51 48 46 46 47 48 48 48 48 48 49 51 53 53 54 55 56 58 61 62 64 64 63
51 53 55 59 61 61 60 57 55 55 56 58 61 64 64 62 59 57 56 56 54 51 48 45 44 44 45 46 47 47 46 47 48 50 51 52 52 53 55 57 59 61 63 63
52 54 56 59 61 61 60 57 55 54 55 57 60 63 63 61 58 56 55 54 52 50 47 43 42 42 43 45 45 45 45 45 45 47 48 49 50 51 53 54 56 58 60 62
52 54 56 59 61 61 60 57 55 54 55 57 59 62 62 60 57 54 53 52 51 49 46 42 40 40 41 43 44 44 44 43 43 44 45 46 48 49 50 52 54 55 57 58
53 54 57 60 61 61 59 57 55 54 55 57 59 61 62 59 56 53 52 51 50 48 46 42 39 38 39 40 42 42 43 43 42 42 43 44 45 46 48 50 51 53 54 55
54 55 58 61 60 60 58 56 54 53 54 56 59 61 61 59 55 52 50 49 49 47 45 42 39 37 37 38 39 40 41 42 42 42 41 42 42 44 45 47 49 50 51 52
56 57 60 61 60 59 57 55 53 52 53 55 58 60 60 58 54 51 49 48 47 46 44 42 38 36 35 36 37 38 40 41 41 41 41 41 42 42 43 45 47 48 50 50
57 58 61 61 59 58 56 54 52 51 52 54 57 59 59 56 53 49 47 46 45 44 43 41 39 36 34 34 35 36 38 39 40 41 41 41 41 42 43 43 45 46 47 48
59 61 62 61 58 56 54 52 50 50 51 54 57 58 58 56 52 48 46 44 43 43 42 40 39 36 34 33 33 34 36 37 39 40 40 41 41 42 43 43 44 44 45 46
61 62 62 59 55 54 52 50 48 48 50 53 56 57 57 55 51 48 45 42 41 41 40 39 38 37 35 33 32 32 34 35 36 38 39 40 41 42 43 43 44 44 44 44
62 63 60 56 53 52 50 47 46 47 49 52 55 56 56 54 51 47 44 41 40 39 39 38 38 37 35 34 33 32 32 32 34 35 37 38 40 41 42 43 43 43 43 43
63 61 57 52 50 49 48 46 45 47 49 52 54 55 55 53 50 46 43 41 39 38 38 37 36 36 36 34 33 32 32 31 32 33 35 36 37 39 41 42 43 43 42 41
61 57 52 48 47 47 46 45 45 47 49 52 53 54 54 52 49 46 43 40 38 38 37 36 35 35 35 35 34 33 33 32 32 32 32 33 35 36 38 40 42 42 42 40

GEFSNGP_500_meanwind_024.txt.gz
Wind_Speed
31 33 34 36 37 38 38 39 39 39 40 43 46 49 53 58 62 66 69 70 70 70 71 71 69 67 67 67 67 66 66 65 64 65 67 69 72 75 75 69 56 41 31 26
29 32 35 37 40 41 41 42 42 42 42 44 46 49 53 58 62 66 68 68 69 70 70 69 67 66 65 66 66 65 65 64 64 65 67 69 71 74 74 68 56 41 28 21
28 31 35 39 43 44 44 45 45 45 45 46 47 50 54 58 62 65 67 68 68 69 69 68 66 64 64 64 64 63 63 63 64 65 66 68 71 73 74 69 58 44 29 19
29 33 37 41 44 47 47 47 48 47 48 48 49 51 54 58 61 65 67 67 67 68 68 67 65 63 63 63 63 62 62 62 63 64 65 67 69 71 73 71 62 49 35 24
31 34 37 41 46 49 50 50 53 53 52 51 51 52 54 57 61 64 66 66 66 67 67 66 64 62 61 61 61 60 60 61 62 63 64 65 67 69 71 71 67 57 43 31
30 35 39 42 46 49 52 54 57 57 55 53 52 51 53 57 60 64 65 65 65 66 66 65 63 60 59 59 59 59 59 59 60 61 63 64 66 68 70 70 69 64 53 40
29 33 37 42 46 49 52 55 58 59 58 55 52 52 53 56 60 63 65 65 65 65 64 63 61 59 58 58 58 57 58 58 58 59 61 63 65 67 69 69 68 67 62 51
32 36 39 43 46 49 51 55 57 59 60 57 54 53 54 56 59 63 64 64 64 64 63 62 60 58 56 56 56 56 56 56 56 57 59 61 63 64 66 67 67 66 65 61
31 34 38 42 45 48 51 54 57 59 61 59 56 54 54 56 59 62 64 64 63 63 62 61 59 57 55 54 54 54 54 54 54 55 56 58 60 61 63 63 64 64 64 62
32 35 38 42 45 48 51 54 57 59 62 61 58 55 54 56 59 61 63 63 62 61 61 60 58 56 54 53 53 53 52 51 51 52 54 56 58 59 60 61 62 63 63 62
33 36 38 42 45 48 51 54 57 60 62 62 59 56 55 55 58 61 62 62 61 60 59 58 57 55 53 51 51 51 51 50 49 50 51 53 55 57 58 59 60 61 61 61
36 39 42 44 46 49 51 54 57 60 63 63 60 57 55 55 57 60 61 62 61 59 58 57 56 54 52 50 49 49 49 49 48 48 49 51 53 56 57 58 58 58 59 60
39 40 42 45 47 49 51 54 57 60 63 63 61 57 55 54 56 59 60 61 60 58 57 56 55 53 51 49 48 48 48 47 47 47 48 49 50 52 53 55 56 56 56 56
41 43 43 45 47 49 51 54 57 60 63 63 61 57 55 54 55 58 59 60 59 58 56 55 53 52 50 48 47 46 46 46 47 47 47 48 49 50 51 51 52 53 54 54
42 45 46 47 48 49 51 55 57 59 62 63 60 57 55 53 54 57 59 59 59 57 55 53 52 51 49 48 46 45 44 45 45 46 47 47 48 49 49 50 50 51 51 51
43 46 47 48 49 50 52 55 57 59 62 62 60 57 54 53 53 56 58 58 58 56 54 52 51 50 48 47 46 44 43 43 44 45 46 47 48 48 48 49 49 49 49 49
45 48 49 49 49 50 52 54 57 58 61 62 59 56 53 52 53 55 57 58 57 55 53 51 50 48 47 46 45 44 43 42 42 43 44 45 47 47 48 48 48 48 48 48
47 50 50 50 50 50 52 54 56 58 60 61 58 55 53 51 52 54 56 57 56 55 53 50 49 47 46 45 44 43 42 42 41 41 42 43 45 47 48 48 47 47 47 47
48 51 51 50 50 50 52 54 56 57 59 60 57 54 52 51 51 52 54 55 55 54 52 50 48 46 45 44 43 42 42 41 41 40 41 42 43 45 46 47 46 46 45 45
49 51 50 50 50 51 52 53 55 57 59 59 55 53 51 50 50 51 53 54 54 53 52 49 47 45 44 43 42 41 41 41 40 40 40 40 41 42 43 45 45 45 44 44
49 51 50 50 50 51 52 53 55 57 58 58 54 52 50 49 49 50 52 53 53 52 51 49 46 45 44 42 42 41 40 40 40 40 40 39 39 39 41 42 43 44 43 43
50 51 51 51 51 52 52 54 55 56 57 57 54 51 49 49 49 49 51 51 51 51 50 48 46 44 43 42 41 40 39 39 40 40 40 40 39 38 38 39 41 42 42 42
52 52 52 52 52 52 53 54 55 56 57 56 53 50 49 48 48 48 49 50 50 50 49 47 45 44 42 42 41 40 39 38 39 40 40 40 40 39 38 38 38 39 40 40
53 53 53 52 52 52 53 54 55 55 56 55 51 49 48 47 47 47 48 49 49 48 48 46 45 43 42 41 40 39 38 37 38 39 41 41 41 40 38 37 37 37 38 38
54 53 53 53 53 53 53 53 54 55 55 53 50 47 47 46 46 46 47 47 47 47 47 45 44 42 41 40 40 39 38 37 37 39 40 41 41 40 39 37 36 35 35 36
54 53 53 53 53 53 53 53 54 54 53 51 48 46 46 45 45 45 45 46 46 46 45 44 42 41 41 40 40 39 38 37 36 37 39 40 40 40 39 37 35 34 33 34
54 53 53 53 52 52 53 53 53 53 52 50 47 45 45 44 44 44 44 44 44 44 44 43 41 40 40 40 40 39 38 36 36 36 38 39 40 39 38 36 34 32 31 32

GEFSNGP_500_meanwind_030.txt.gz
Wind_Speed
13 16 19 23 26 30 33 37 40 44 48 52 55 58 58 56 56 55 56 58 60 64 67 69 70 71 72 72 70 68 66 65 64 63 64 65 67 69 70 71 72 71 65 54
14 17 19 22 25 29 33 37 41 45 48 53 56 59 60 59 58 57 57 58 61 64 66 68 69 70 71 71 69 67 65 64 63 62 62 63 65 67 68 69 70 71 68 60
15 18 20 21 25 28 32 36 41 45 49 54 57 60 62 62 60 58 58 59 61 63 66 67 68 69 69 69 68 66 64 63 62 61 61 62 63 65 66 66 68 69 69 65
17 19 22 25 27 29 31 36 40 44 48 53 57 61 64 65 63 60 59 59 60 63 65 66 67 68 68 68 67 65 63 62 60 60 60 61 62 63 64 65 66 67 68 67
21 22 23 26 29 32 34 36 40 44 48 53 57 61 64 67 65 62 60 59 60 63 64 65 66 67 67 67 66 64 62 60 59 59 59 60 60 61 62 63 64 65 66 66
24 26 28 29 32 34 37 39 43 46 49 53 57 61 64 67 66 63 61 60 60 62 64 65 65 65 66 66 65 64 61 59 58 58 59 59 59 60 61 62 62 63 64 65
25 27 30 31 34 36 38 41 44 47 49 53 56 60 63 67 67 64 62 60 60 62 63 64 64 64 64 65 64 63 61 58 57 57 57 58 59 59 59 60 61 62 62 63
27 29 32 33 35 37 39 41 43 46 49 52 56 59 63 66 68 66 63 61 60 61 62 63 63 63 63 63 63 62 60 58 57 56 56 56 57 58 58 58 59 59 59 60
29 29 34 34 35 38 40 42 44 46 49 52 55 59 62 65 68 67 64 62 60 60 62 62 62 62 62 62 62 61 59 57 56 55 55 55 55 56 56 56 56 57 57 58
32 30 35 36 38 40 43 44 45 47 49 52 55 58 62 65 67 67 65 62 60 60 61 61 61 60 61 61 61 60 58 57 55 54 54 54 54 55 55 55 55 55 56 56
35 35 37 36 39 42 44 46 47 48 50 52 55 58 61 64 66 67 66 63 60 59 60 60 60 59 59 60 60 59 57 56 54 53 53 53 53 54 54 55 56 55 55 55
38 39 42 39 41 44 46 48 48 49 50 52 55 57 60 63 65 67 66 64 60 58 58 59 58 58 58 58 58 58 56 54 53 52 52 51 51 52 54 54 54 54 54 54
41 42 44 43 44 46 48 50 50 50 51 53 54 56 59 62 64 65 66 64 60 58 57 58 57 57 56 57 57 57 55 53 52 51 51 50 50 49 50 51 53 53 52 52
41 44 45 45 47 48 50 51 52 52 52 53 54 56 58 61 63 64 65 64 60 57 56 57 56 56 55 55 55 55 55 53 51 50 50 50 50 49 48 48 49 50 50 50
39 44 47 48 49 50 51 53 53 53 53 53 54 55 57 60 62 63 64 64 60 57 55 55 55 54 54 53 54 54 54 53 51 49 49 49 49 49 48 48 47 47 47 47
38 42 45 48 50 51 52 54 55 54 54 53 53 55 56 58 61 62 63 63 60 56 54 54 53 53 53 52 52 53 52 52 50 49 48 48 49 48 47 46 46 46 46 45
40 42 44 48 50 52 54 55 56 55 54 53 53 54 56 58 59 61 62 62 60 56 53 52 52 51 51 51 51 51 51 51 50 48 47 47 48 48 47 46 45 45 45 44
44 45 46 49 51 53 55 56 56 56 54 52 52 53 55 57 59 59 60 61 60 55 52 51 50 50 50 49 49 50 50 50 49 48 47 46 47 47 47 46 44 43 43 43
51 51 51 51 52 54 55 56 57 56 54 52 51 53 55 56 58 58 59 60 59 54 51 50 49 48 48 48 48 48 49 49 49 47 46 45 46 46 46 45 44 43 41 41
60 58 56 54 52 53 54 56 57 56 54 52 51 52 54 56 56 57 58 59 58 54 50 48 47 46 46 47 46 47 47 48 48 47 46 45 45 45 45 44 43 42 40 40
65 63 60 56 53 53 54 56 57 56 54 52 51 52 54 55 55 55 56 57 57 53 49 47 46 45 45 45 45 45 46 46 47 46 45 44 44 43 43 43 42 41 39 38
68 67 63 58 54 53 55 57 58 57 55 53 51 52 53 54 54 54 55 56 56 52 48 45 44 43 43 43 43 43 44 45 46 46 45 44 43 42 42 42 41 40 38 37
65 64 62 58 56 54 55 58 58 57 55 52 51 52 53 53 53 53 54 55 54 50 46 44 43 42 41 42 42 42 42 43 44 45 44 43 42 41 41 41 40 38 37 36
62 59 58 56 55 55 56 57 58 57 54 52 51 52 52 52 52 52 53 54 53 49 45 43 42 41 40 40 40 40 40 41 43 43 43 42 41 40 40 39 38 37 36 35
58 56 54 54 53 55 57 59 58 56 54 52 52 52 52 51 51 51 52 52 51 47 43 41 40 39 38 38 38 39 39 40 41 42 42 42 41 39 38 38 37 36 34 33
55 54 53 52 53 55 58 58 57 55 53 52 52 51 51 50 50 51 51 50 49 45 42 40 39 38 37 36 37 37 37 38 39 40 41 41 40 38 37 36 35 34 33 32
56 54 53 52 53 55 56 57 56 54 53 53 52 51 50 50 50 50 49 48 46 43 40 39 38 37 36 35 35 36 36 36 37 39 40 40 39 37 36 35 34 33 32 31

GEFSNGP_500_meanwind_036.txt.gz
Wind_Speed
18 18 17 17 19 20 23 26 28 30 32 35 37 40 44 47 51 54 58 62 65 68 70 68 66 65 66 67 68 69 71 73 73 71 68 66 64 63 62 62 62 63 64 65
21 21 20 19 21 22 24 27 29 31 33 36 38 41 44 47 51 54 58 61 65 68 71 70 67 66 66 67 67 69 70 72 72 70 68 66 64 62 61 61 61 62 63 63
24 24 25 22 23 24 25 28 31 32 35 37 39 41 45 47 51 55 58 61 65 68 71 71 69 67 66 67 67 68 70 71 71 70 68 65 63 61 61 61 60 60 61 62
28 27 27 25 26 27 28 29 32 33 36 39 41 42 45 48 51 55 58 61 64 68 70 72 71 68 67 67 67 67 69 70 71 70 67 65 63 61 60 60 60 59 59 60
31 31 30 28 29 31 31 30 32 35 37 39 42 44 45 48 51 54 57 61 64 67 70 72 72 69 67 67 66 67 68 69 70 69 67 64 62 60 59 58 59 58 58 59
34 34 33 30 32 34 35 33 34 37 39 41 44 47 48 49 51 54 57 60 63 66 69 71 72 70 67 66 66 66 67 68 69 68 66 63 61 60 58 57 58 58 58 57
37 37 35 33 35 37 37 38 38 39 41 42 45 48 49 50 52 54 57 60 62 65 68 70 72 71 68 66 65 65 66 67 68 68 65 63 61 59 57 56 56 56 56 56
40 39 36 35 37 39 40 40 41 42 43 44 45 47 49 50 52 54 57 59 61 64 66 69 71 71 68 66 65 64 64 66 67 67 66 63 60 58 57 55 54 54 53 53
43 40 37 37 40 42 44 43 43 44 45 45 46 48 49 50 52 53 56 58 60 62 65 67 69 71 69 66 65 63 63 64 66 67 66 63 60 58 56 54 52 52 51 51
45 40 36 38 41 44 46 46 46 47 47 47 47 48 50 50 51 53 55 58 59 61 63 66 68 69 69 67 64 63 62 63 64 66 66 64 60 57 54 53 51 50 50 50
45 38 35 37 40 43 45 47 47 48 48 48 49 49 50 50 51 52 55 57 58 59 61 64 66 68 68 67 64 62 61 61 63 64 65 64 61 57 54 52 51 50 49 49
42 36 37 38 37 39 43 46 47 48 48 48 49 49 50 51 51 52 55 57 58 58 59 61 64 66 67 67 64 61 60 60 61 62 63 63 61 58 55 52 51 50 49 48
43 41 41 39 38 39 44 46 47 49 49 49 49 50 51 51 52 53 55 57 57 57 58 59 61 63 66 66 63 60 59 58 59 60 62 61 59 56 54 52 50 49 47 47
50 49 49 46 44 43 45 47 49 50 50 50 50 51 52 53 53 55 56 57 56 56 56 57 59 61 64 65 63 59 57 57 57 58 60 60 59 56 52 50 48 47 46 45
59 59 59 56 52 49 49 51 52 52 52 51 52 53 55 55 56 56 57 57 56 55 55 56 57 59 62 64 62 59 56 55 55 56 58 59 59 57 53 49 47 45 44 44
68 68 67 65 61 57 55 55 55 55 54 55 55 56 57 58 58 58 58 57 56 54 54 54 55 57 59 62 61 58 55 53 53 54 56 57 58 57 54 50 46 44 42 41
74 73 72 71 68 64 61 59 59 58 58 58 57 59 60 60 60 60 60 58 55 54 52 52 53 54 57 60 60 56 53 52 51 52 53 55 56 56 54 50 46 43 40 39
74 74 74 74 72 68 65 63 62 61 60 60 60 61 61 61 61 61 60 57 54 53 51 50 50 52 55 58 58 55 52 50 50 50 51 53 55 55 54 50 46 42 40 39
68 70 70 70 70 69 68 66 64 63 62 62 61 61 62 62 61 61 60 56 53 51 49 48 48 50 52 55 56 53 50 48 48 48 49 51 53 54 53 50 46 42 39 38
64 65 67 67 67 66 66 66 66 65 63 62 61 61 61 61 61 60 59 55 52 51 48 46 46 47 50 53 53 51 48 46 46 46 47 49 51 52 52 50 47 42 39 37
61 62 64 65 66 66 65 65 64 62 61 60 59 59 59 59 59 59 57 55 53 50 46 44 44 45 47 50 51 49 46 44 44 44 45 46 49 50 51 50 47 43 39 36
59 61 62 63 64 64 64 63 63 62 60 58 57 57 57 57 58 58 56 54 52 48 43 42 41 43 45 47 48 46 44 42 42 42 42 44 46 48 49 49 47 43 39 36
61 62 62 63 63 63 63 62 61 60 58 56 55 55 55 55 55 55 54 52 49 45 41 40 39 40 42 44 45 44 42 40 40 40 40 42 44 46 48 48 46 43 39 36
62 62 63 63 63 62 61 60 59 57 55 54 54 53 53 53 53 53 52 50 47 43 39 38 37 38 40 41 42 41 39 38 38 38 38 39 41 44 46 46 46 43 39 35
65 65 65 64 63 62 60 59 57 55 53 52 52 52 52 52 51 51 50 47 44 40 38 36 36 36 38 39 39 38 37 36 36 36 36 37 39 41 44 45 45 42 39 35
68 67 66 65 63 61 59 57 55 53 52 51 51 52 51 51 51 50 48 45 41 38 36 35 34 34 35 36 37 36 35 34 34 34 35 35 37 39 41 43 44 42 38 34
70 69 67 66 63 62 59 56 54 52 51 52 53 53 53 52 50 48 45 42 38 36 35 34 33 32 33 34 35 34 33 32 32 33 33 33 34 36 39 41 42 41 38 34

GEFSNGP_500_meanwind_042.txt.gz
Wind_Speed
32 33 35 33 31 32 34 34 37 35 34 33 37 38 39 42 44 46 48 51 53 54 55 56 60 63 65 67 69 72 75 77 78 76 75 75 76 77 76 74 70 66 65 64
33 35 38 36 32 34 36 36 37 38 37 36 40 39 40 42 45 46 49 51 53 54 55 56 59 62 64 67 69 71 74 76 77 76 75 74 75 76 75 73 69 65 64 63
36 37 40 38 33 35 38 38 39 40 39 40 41 41 41 44 46 48 49 52 54 55 56 56 58 61 64 66 68 70 72 75 77 77 75 74 74 75 75 73 69 65 63 62
40 40 42 37 36 37 40 40 41 42 42 43 44 43 43 46 48 49 51 53 55 56 56 56 58 61 63 66 67 69 71 74 76 76 75 73 73 74 74 72 69 65 62 61
43 44 44 38 37 39 42 42 42 44 44 45 46 46 44 47 49 51 52 54 55 56 56 56 57 60 63 65 66 68 70 72 74 75 74 72 72 73 73 72 69 65 62 60
45 47 47 42 39 40 42 44 44 46 46 47 48 49 48 49 51 52 53 54 55 56 55 56 57 59 62 64 66 67 68 70 73 74 73 72 71 71 72 71 69 65 61 59
46 49 50 44 42 42 42 43 45 48 49 50 52 52 52 52 53 54 54 54 55 56 55 55 57 59 61 64 65 66 67 69 71 73 72 71 70 70 70 70 68 65 61 58
47 50 49 44 43 41 41 43 46 49 51 53 54 53 53 53 54 54 54 54 55 55 55 56 57 59 61 63 65 66 66 67 69 71 71 70 68 68 69 69 68 64 60 57
52 51 48 46 43 40 41 44 47 50 52 54 55 55 54 54 55 54 54 54 54 55 55 56 57 59 61 63 65 66 65 65 67 69 69 68 67 66 67 67 67 64 60 56
58 54 50 48 45 43 45 48 49 51 53 54 56 56 56 56 56 55 55 55 55 56 57 57 58 60 61 63 65 65 65 64 65 67 67 67 65 64 65 65 65 64 60 56
62 58 56 53 50 50 50 51 52 53 54 55 57 58 58 58 58 58 58 58 58 58 59 59 59 60 62 63 64 64 64 62 63 64 66 65 63 63 63 64 65 64 61 56
67 63 63 61 57 57 57 56 56 57 57 57 59 60 60 61 61 62 61 61 61 61 61 61 61 61 62 63 64 63 62 61 61 62 63 63 62 61 61 62 64 63 61 56
69 68 69 67 63 62 62 61 60 60 61 61 61 63 63 63 64 64 64 64 64 64 63 63 62 62 63 63 63 63 61 59 59 60 61 61 60 59 59 60 62 62 60 55
67 69 70 68 67 65 64 64 63 63 62 63 63 64 64 64 64 64 65 65 65 65 65 64 63 63 63 63 62 61 59 57 57 58 58 58 57 56 56 57 59 59 59 55
61 63 66 65 65 64 64 64 64 63 62 62 62 62 61 61 60 61 62 63 64 64 64 64 63 62 62 61 60 59 57 55 55 55 55 56 55 54 54 55 56 57 57 55
54 56 57 59 59 59 60 60 59 58 57 56 56 56 56 55 55 55 57 59 60 61 62 61 61 61 60 60 59 57 55 53 53 53 53 53 52 51 51 52 53 54 54 53
44 45 47 48 49 50 50 51 52 52 52 51 52 52 53 53 53 53 54 54 55 56 58 58 58 59 59 59 58 56 53 51 50 50 50 50 50 49 48 49 50 52 52 52
35 37 39 40 40 43 45 47 48 49 50 51 50 50 50 50 50 51 51 52 53 54 55 56 56 57 57 57 56 53 51 49 48 47 47 47 47 46 46 46 47 49 50 51
35 37 39 40 42 43 44 46 47 47 48 48 48 49 49 50 50 50 49 50 51 53 54 54 54 54 54 54 53 52 50 47 46 45 44 44 44 43 43 43 45 46 48 48
39 40 42 44 45 46 46 46 47 48 49 50 50 50 51 52 52 52 51 51 52 52 53 53 53 52 52 52 51 50 48 45 43 42 41 41 41 41 40 41 42 44 45 46
42 43 44 45 46 47 49 50 52 52 53 54 55 55 55 55 55 54 54 52 52 52 52 52 51 50 50 50 50 48 45 43 41 39 38 38 38 38 38 38 39 41 43 44
48 48 49 51 52 53 55 56 57 58 58 59 59 60 60 60 59 57 56 56 55 54 52 51 50 50 49 48 47 46 44 41 38 37 36 36 35 35 35 36 37 38 40 42
52 53 55 57 58 59 59 60 61 63 64 65 65 66 65 64 64 63 61 59 57 55 53 51 49 49 48 47 45 44 41 38 36 34 33 33 33 32 33 33 34 36 38 39
56 57 58 60 61 62 62 64 66 67 69 70 70 71 71 70 69 67 65 62 59 56 53 50 48 47 47 44 42 41 39 36 34 32 31 31 30 30 30 31 32 33 35 37
59 60 61 62 63 65 67 69 70 72 73 74 74 74 74 72 70 68 66 62 58 55 52 49 46 45 43 41 39 38 36 34 32 29 28 28 28 27 28 28 29 31 33 35
60 61 62 64 66 69 71 73 74 75 76 76 75 74 73 70 68 65 62 59 55 52 49 47 44 42 40 38 37 35 34 32 29 26 26 26 25 25 26 26 27 28 31 33
59 61 63 65 67 70 72 74 74 74 74 74 72 70 68 65 62 58 55 52 50 47 44 42 41 39 37 36 35 33 32 30 27 24 24 24 23 23 24 24 25 26 29 31

GEFSNGP_500_meanwind_048.txt.gz
Wind_Speed
36 36 39 41 39 37 40 42 46 45 46 41 39 43 47 48 48 48 47 48 49 49 50 51 53 54 56 56 56 56 57 58 59 61 64 67 69 72 73 73 73 73 73 72
39 38 42 44 40 39 40 42 44 46 45 41 43 46 47 48 49 49 49 49 50 51 51 52 54 55 56 56 56 57 57 58 60 62 64 67 70 72 72 72 72 73 72 71
44 42 45 45 40 40 42 42 43 45 44 43 44 46 47 48 49 49 49 50 51 52 53 53 55 56 56 56 57 57 58 59 60 63 65 68 69 71 71 71 71 71 71 70
49 48 51 45 43 42 43 43 43 44 44 44 45 46 46 47 49 49 50 50 51 53 54 54 55 56 56 56 57 58 59 60 61 64 66 68 69 70 70 70 70 70 69 68
51 54 55 49 44 45 47 46 44 46 46 45 46 47 47 48 49 50 50 52 53 54 55 55 56 56 57 57 58 59 60 61 63 65 67 68 69 70 70 69 68 68 68 66
54 57 58 51 49 49 51 50 48 49 49 49 49 49 49 50 51 52 53 54 55 56 56 57 57 58 59 59 59 61 62 63 64 66 67 68 68 68 68 67 66 66 66 65
56 59 59 52 52 53 53 52 52 53 53 53 53 53 53 54 55 56 57 58 59 59 59 58 59 59 60 60 61 63 64 65 66 67 67 67 67 67 66 65 64 64 64 64
58 61 59 55 56 56 56 57 57 57 57 58 58 58 58 59 59 59 60 60 61 61 61 61 61 61 61 62 63 65 66 66 66 66 66 66 65 64 64 63 61 61 62 62
60 60 58 59 59 59 60 62 62 62 63 63 64 63 63 63 62 62 62 63 63 63 62 62 62 63 63 64 65 65 65 65 65 65 65 64 63 62 61 60 59 59 59 60
58 57 57 58 59 61 63 65 65 65 65 65 65 65 65 64 64 64 63 64 64 63 62 62 62 63 63 63 63 63 63 63 63 63 63 61 60 59 58 57 57 56 57 57
53 52 54 55 57 59 61 62 63 63 63 64 64 63 64 63 63 63 62 62 62 62 61 61 61 60 60 60 59 59 59 59 60 60 60 58 57 56 55 55 54 54 54 55
47 45 49 50 51 53 54 55 55 55 55 55 56 57 57 56 56 56 57 57 58 58 58 57 56 55 54 55 56 57 57 57 57 57 57 56 55 54 53 53 52 51 52 52
40 41 43 43 45 46 47 48 49 49 50 50 50 51 50 50 50 51 51 52 52 52 52 51 52 52 53 54 55 55 55 55 55 55 54 54 53 52 51 50 49 49 49 50
36 37 37 37 38 38 40 41 42 44 45 47 48 48 47 46 46 46 47 47 47 48 48 49 50 51 51 52 52 52 52 53 54 54 53 52 52 50 48 47 47 47 47 47
35 35 34 34 34 35 36 37 38 39 41 42 43 44 44 44 45 45 45 46 46 47 49 50 50 50 50 50 50 50 51 51 52 52 52 51 50 48 46 45 44 44 44 45
34 34 34 33 34 34 35 36 37 38 39 40 41 42 43 44 44 45 46 47 48 48 48 48 48 48 48 48 48 49 50 51 51 50 50 49 47 45 43 42 41 42 42 42
37 36 36 36 36 36 37 38 39 40 41 42 43 43 45 46 47 48 49 50 50 49 49 49 49 49 49 50 51 51 52 52 51 49 49 47 45 43 40 39 39 40 40 40
40 40 40 40 40 40 41 42 43 44 45 46 47 48 50 51 52 52 52 52 52 52 52 52 52 53 53 54 54 53 52 52 50 48 46 44 42 40 38 37 36 37 37 37
44 44 45 45 46 47 47 47 48 49 50 51 52 53 54 55 56 56 56 55 55 55 55 56 57 57 57 56 55 53 52 51 49 46 44 42 40 38 36 34 34 35 35 35
47 48 48 49 50 51 52 53 54 55 56 57 57 58 58 58 59 59 59 58 59 60 60 61 61 60 60 58 56 54 52 50 47 44 43 41 38 36 33 32 32 32 33 32
48 49 50 51 52 53 55 56 58 58 58 59 59 60 60 60 60 61 61 61 62 63 63 63 63 62 61 59 56 54 51 48 45 43 41 39 36 33 30 29 29 30 30 30
49 49 51 52 54 54 55 57 58 59 59 59 60 61 61 61 61 62 63 64 65 64 64 63 61 60 58 56 54 51 49 46 43 41 39 36 34 30 28 27 27 27 28 27
52 52 54 55 56 56 57 58 59 60 60 60 61 61 61 61 62 63 63 64 64 63 61 60 59 58 56 53 50 48 45 43 40 38 36 34 31 27 25 24 24 25 25 24
52 53 55 56 57 58 58 58 59 58 58 59 59 60 60 61 61 63 64 63 62 61 60 59 58 55 53 49 46 44 42 40 37 35 32 30 27 23 22 22 22 22 22 21
52 53 54 55 56 57 57 56 55 55 55 56 56 57 59 61 61 61 61 61 60 59 57 54 52 50 47 45 42 39 36 35 33 31 28 26 23 21 20 19 19 19 19 18
51 52 53 54 54 54 54 53 52 52 52 52 53 55 57 58 58 59 59 58 56 53 51 49 47 45 42 39 36 33 31 30 28 27 25 22 20 19 18 17 17 16 16 16
50 50 51 51 51 51 50 50 49 49 50 52 53 54 54 54 54 55 54 53 50 48 46 44 41 38 34 31 27 26 26 25 24 23 22 20 18 17 16 15 14 13 13 13

GEFSNGP_500_meanwind_054.txt.gz
Wind_Speed
46 45 46 48 46 44 45 46 50 51 52 52 53 55 55 56 56 55 55 55 55 55 54 55 55 56 56 56 57 59 59 60 62 64 65 66 67 67 67 67 67 67 67 67
51 49 51 53 48 46 47 48 50 53 54 53 56 57 58 59 59 59 58 57 57 57 57 56 57 57 57 58 59 60 61 62 64 66 66 67 67 67 67 66 66 65 65 64
55 53 56 55 49 50 50 51 52 55 56 58 58 59 60 60 60 60 59 59 58 58 58 58 59 59 60 61 62 63 64 65 65 66 67 67 66 66 65 64 63 62 62 62
56 56 58 54 52 52 54 53 54 56 58 60 60 60 61 61 61 60 60 59 59 59 59 60 61 62 62 63 64 65 65 66 66 66 65 65 64 63 62 60 60 60 60 59
56 57 57 54 52 54 56 55 54 57 58 59 59 58 59 60 61 61 61 61 61 61 61 60 60 61 62 62 63 64 65 64 64 63 63 62 60 59 58 57 58 58 57 56
51 54 55 52 52 53 53 54 54 56 57 57 57 58 57 57 59 60 60 61 61 61 60 58 58 60 60 61 61 61 61 61 60 59 59 58 57 56 56 56 56 56 54 54
49 51 51 50 51 52 53 54 54 55 56 56 56 56 55 55 55 56 56 56 57 57 56 56 56 56 56 56 57 58 58 58 57 56 56 54 53 53 54 54 54 53 53 53
47 49 49 49 50 50 51 52 53 54 54 54 53 52 52 52 52 51 50 51 52 54 54 53 54 54 54 53 53 53 53 53 52 52 52 51 51 51 51 51 51 51 51 52
46 46 46 48 49 49 50 51 50 51 50 50 49 49 49 49 47 46 46 47 48 49 49 50 51 51 51 51 50 49 49 49 50 50 49 49 49 50 50 49 49 49 50 50
46 45 45 47 47 47 48 48 48 49 48 48 48 47 46 44 43 43 43 44 44 44 45 45 47 48 50 49 49 49 49 49 49 49 48 49 49 49 49 48 48 48 48 48
47 46 47 46 47 48 48 48 48 47 46 46 45 43 42 42 42 42 42 43 43 44 45 45 45 47 48 49 50 50 51 51 51 50 50 50 49 49 48 48 48 48 48 47
49 49 51 49 49 49 48 47 46 45 44 44 43 42 42 42 43 43 43 44 43 44 45 46 48 49 50 51 51 52 52 52 52 52 51 51 50 50 50 49 48 47 47 46
52 52 52 51 51 50 50 49 47 46 45 44 43 43 44 44 44 44 45 46 46 47 48 49 50 52 52 53 53 53 53 53 52 51 51 51 51 51 50 50 49 47 46 44
53 53 53 52 52 52 51 50 49 48 47 46 46 46 47 47 47 47 48 49 49 50 50 52 53 53 54 54 54 53 53 53 53 52 52 52 52 52 51 50 48 46 45 43
55 55 54 53 53 52 52 52 51 50 49 49 49 50 50 50 50 50 51 52 52 53 54 54 55 55 55 54 54 54 55 55 55 55 55 54 54 53 51 49 46 44 43 41
56 56 55 54 53 52 52 52 51 51 51 51 51 51 51 51 51 52 53 54 55 55 55 55 55 54 55 55 55 55 56 56 56 56 56 55 53 52 49 46 44 42 40 38
55 54 54 53 52 52 52 52 52 52 52 52 51 52 53 53 54 54 55 55 56 56 56 57 56 57 57 57 57 57 58 57 57 56 55 54 52 50 47 44 42 40 38 36
52 52 52 52 51 51 51 51 52 52 52 53 53 53 54 55 55 55 55 55 56 56 57 57 57 57 57 58 59 59 58 57 56 56 55 53 50 47 44 42 39 36 35 34
49 49 50 50 51 51 51 52 52 53 54 54 53 53 54 55 55 55 56 56 57 56 56 56 56 56 56 58 58 57 56 55 55 54 54 52 48 45 42 38 36 33 32 31
48 48 49 50 50 51 51 52 52 53 53 53 53 53 53 54 55 55 55 55 56 56 55 55 55 55 56 57 58 57 56 56 55 53 52 49 45 42 38 35 33 31 29 29
47 48 48 49 50 50 51 51 51 51 51 51 52 52 52 52 52 53 53 53 52 53 52 52 54 56 57 57 57 57 56 55 53 51 49 45 41 38 34 32 30 28 26 26
46 47 47 48 49 49 49 49 49 49 49 50 50 51 51 51 51 51 51 51 50 50 50 51 53 55 55 55 55 54 54 53 51 48 44 41 37 33 30 28 26 24 24 24
45 45 46 47 47 47 46 47 48 49 49 49 49 49 49 49 48 47 45 45 46 47 49 50 52 52 52 53 53 52 51 49 46 43 40 36 32 28 25 23 22 21 21 20
44 44 45 45 45 45 45 45 46 46 46 45 45 45 45 44 43 44 44 44 45 46 48 49 50 50 51 52 51 50 48 45 42 38 34 29 25 21 19 19 18 18 18 17
43 43 43 44 44 44 44 44 44 42 42 41 41 41 42 42 41 42 42 43 44 45 47 48 48 49 49 49 48 47 44 41 37 32 27 21 17 15 15 16 15 15 15 14
43 43 43 43 43 43 42 41 40 39 38 37 37 38 39 40 41 41 42 42 43 44 46 46 47 47 47 46 44 42 39 36 31 25 18 13 11 11 12 13 13 12 12 10
43 43 42 42 42 42 40 39 38 36 36 35 35 36 38 38 39 40 40 40 41 43 44 44 44 44 42 40 38 36 33 28 22 16 11 8 8 8 9 10 10 9 8 6

GEFSNGP_500_meanwind_060.txt.gz
Wind_Speed
36 36 38 39 39 39 41 43 46 46 47 47 49 50 50 50 50 50 50 51 51 50 49 48 48 47 47 46 47 47 48 50 52 53 55 56 57 58 59 59 60 60 60 61
34 34 36 37 36 37 39 41 43 44 44 46 48 48 49 49 50 50 50 50 49 48 48 48 47 47 46 47 47 48 49 50 51 53 53 54 55 55 56 57 57 57 58 58
32 33 34 33 33 35 37 38 41 43 44 46 46 46 47 48 48 49 48 48 48 48 48 48 47 47 47 48 48 49 49 49 50 50 51 52 53 54 54 54 54 54 54 55
35 35 35 34 35 37 38 39 40 41 43 44 45 46 47 47 48 48 47 48 49 49 49 48 47 47 47 47 47 47 46 46 47 48 49 50 51 52 52 52 52 53 53 53
36 37 37 36 38 40 41 40 42 43 43 44 45 46 47 47 48 48 48 49 49 49 48 47 47 47 47 46 45 44 44 45 46 47 49 50 51 52 52 52 52 53 53 53
37 40 41 41 43 44 45 46 46 46 47 47 48 48 47 48 48 49 49 49 49 48 47 47 48 47 46 45 45 45 45 46 47 47 49 50 51 52 53 53 53 54 54 53
40 43 44 44 46 47 49 50 50 50 50 51 51 52 51 51 51 51 50 50 49 49 48 48 48 47 46 46 46 46 47 47 48 50 50 51 52 52 53 53 54 55 54 53
43 46 46 48 49 51 52 53 53 53 54 54 54 55 55 54 54 53 53 52 51 50 49 49 49 48 47 47 48 48 49 50 51 52 52 52 53 53 54 55 55 55 54 54
47 49 49 51 53 54 56 57 57 57 57 58 58 58 58 58 57 56 55 53 52 51 50 50 50 50 49 50 50 50 51 53 53 54 54 54 55 55 55 55 56 55 54 54
51 50 52 54 56 57 59 59 60 60 61 62 61 61 61 60 60 59 57 55 54 53 52 52 52 52 52 52 52 53 53 54 55 55 55 56 56 55 55 55 55 54 55 55
55 55 56 58 59 60 61 62 63 63 64 64 64 64 63 62 61 60 58 57 56 55 54 53 53 53 53 53 54 54 54 55 56 57 56 56 56 55 55 55 55 55 55 55
59 60 62 62 63 65 65 65 66 66 66 66 66 65 64 62 61 60 58 57 57 56 55 54 54 54 54 55 55 55 56 56 57 57 56 56 56 55 55 56 55 55 55 54
62 63 64 65 66 67 68 68 68 68 68 67 66 65 64 62 61 60 59 58 57 56 56 55 55 55 56 56 57 57 58 57 57 57 56 56 56 56 56 56 55 55 54 54
66 67 67 67 68 69 69 68 68 68 67 66 65 64 62 61 60 59 58 58 57 57 57 56 56 56 56 56 57 57 57 58 57 57 57 57 57 57 57 56 55 54 54 53
68 69 69 69 69 68 68 67 66 65 64 63 62 61 60 59 58 57 57 58 57 56 56 56 56 56 56 56 56 57 57 57 56 56 56 56 56 57 57 56 55 54 53 51
68 68 67 66 65 64 63 62 62 61 60 59 58 58 58 57 57 57 57 57 56 55 55 55 54 54 55 55 55 55 55 54 54 55 55 55 56 57 56 55 55 53 51 49
64 63 62 61 60 58 58 57 57 57 56 56 56 56 56 55 55 55 55 55 55 54 54 54 53 53 53 54 53 52 52 52 53 53 53 54 55 55 54 54 53 51 49 47
60 59 57 56 55 54 53 53 53 53 54 54 54 54 54 54 54 53 53 52 51 51 52 52 52 51 51 51 50 50 50 50 51 52 52 54 54 55 55 54 52 49 45 41
55 53 52 52 51 51 51 51 52 52 52 53 52 52 52 51 51 51 50 50 50 49 48 49 48 48 47 46 47 48 48 49 50 52 53 54 54 54 52 50 46 42 37 34
51 50 50 50 50 50 51 51 51 51 51 52 52 51 50 50 50 49 48 48 48 48 46 45 44 44 44 44 45 46 48 49 51 52 53 52 51 50 48 44 39 35 31 27
49 48 48 49 49 50 51 51 51 50 51 51 51 50 49 48 48 48 47 45 45 44 43 42 42 42 43 43 45 46 48 49 50 50 50 48 47 44 40 36 32 27 23 21
48 48 48 49 50 50 50 50 50 50 50 50 49 49 48 47 46 45 45 44 41 40 39 40 41 41 42 43 45 45 46 47 47 47 46 44 42 37 33 29 25 21 18 17
47 48 48 49 49 49 48 49 49 49 49 48 48 48 47 46 45 43 40 39 38 37 37 38 39 40 41 42 43 44 44 44 44 44 42 39 35 31 27 23 19 17 16 14
47 47 47 48 48 47 46 46 46 46 47 46 46 46 45 44 41 39 37 36 36 36 36 37 38 39 40 41 41 42 42 41 41 40 37 33 29 25 22 19 16 14 13 11
45 45 45 46 45 45 45 44 44 44 44 43 42 42 42 40 38 36 35 35 35 34 35 35 36 38 38 38 39 39 39 38 37 35 32 28 24 20 18 15 11 10 9 7
44 44 44 44 45 45 44 43 43 43 42 40 38 38 37 36 35 34 33 33 33 33 33 34 35 35 36 36 36 35 35 33 32 30 27 24 19 15 13 10 9 8 7 7
43 43 43 43 43 43 43 43 42 41 40 38 36 34 34 33 33 32 32 32 31 31 32 32 32 33 33 33 32 32 31 30 28 25 22 19 15 13 11 9 8 7 7 7

GEFSNGP_500_meanwind_066.txt.gz
Wind_Speed
29 28 29 28 27 29 31 33 35 33 34 36 37 38 40 42 44 45 47 48 49 50 51 52 53 54 55 55 56 56 56 56 56 56 55 56 56 56 57 58 58 58 57 57
28 29 29 27 27 30 31 33 35 36 37 39 41 42 44 45 47 49 50 51 52 53 54 55 56 57 57 58 58 58 58 58 58 58 57 57 56 56 57 57 57 56 56 57
29 29 29 28 29 31 33 34 37 39 40 42 44 45 47 49 51 52 53 55 56 57 59 59 60 61 61 61 61 61 60 60 59 59 58 57 57 57 57 56 56 56 56 57
30 30 31 30 32 34 36 37 39 41 43 45 47 48 50 52 55 56 58 60 61 62 63 64 64 64 64 64 64 63 63 62 61 60 59 59 58 58 58 57 57 57 57 58
34 35 35 33 35 38 40 41 43 45 47 48 50 52 53 56 59 61 62 64 65 66 67 68 68 68 67 66 65 65 64 62 61 61 59 59 58 58 58 57 57 58 58 59
37 39 39 38 40 43 45 47 48 50 52 54 56 57 58 61 63 65 67 68 70 70 71 71 70 70 69 68 66 65 64 62 61 61 60 59 58 57 57 57 57 57 58 59
38 42 42 43 46 47 49 52 53 55 57 59 61 63 65 67 69 70 72 73 73 74 74 73 72 71 69 68 66 65 64 62 61 60 59 58 58 57 57 57 57 57 58 58
41 44 45 48 50 52 54 56 57 59 62 63 65 67 69 71 72 74 75 76 76 76 75 73 72 70 68 66 65 64 62 60 59 58 58 58 58 57 57 57 57 57 57 57
45 47 48 51 53 56 58 60 62 64 65 68 69 71 73 74 76 77 77 77 77 76 74 71 69 68 66 64 63 62 60 59 58 58 58 58 57 57 57 57 57 56 55 55
49 49 51 53 56 58 60 63 65 67 69 71 73 75 76 78 78 78 78 77 75 73 70 68 66 65 64 63 62 60 59 58 58 57 56 56 56 56 55 55 54 54 54 54
53 53 56 58 60 62 64 66 68 70 72 74 76 77 78 79 78 77 75 73 71 69 67 65 63 62 62 62 60 58 57 56 56 55 54 54 53 53 53 53 54 53 53 54
56 57 60 62 64 66 68 69 71 73 74 76 78 78 78 77 76 73 71 69 67 65 64 62 61 60 60 59 58 57 55 54 53 53 52 51 50 49 50 50 51 52 52 53
59 61 63 65 67 69 70 72 74 75 76 77 77 76 75 74 71 69 67 66 65 63 62 61 60 59 58 57 56 55 54 52 51 50 49 48 47 47 46 46 47 49 50 51
63 65 65 67 69 70 72 73 74 75 75 75 74 72 71 69 67 65 64 63 62 61 60 59 58 57 56 55 54 53 51 50 49 48 46 45 44 45 45 46 46 47 49 50
65 67 68 69 71 72 73 74 74 73 72 70 69 67 66 65 63 62 61 61 60 58 58 57 56 55 54 53 52 50 48 47 46 45 44 43 43 44 46 47 47 48 49 49
66 68 69 70 71 72 72 72 71 69 67 65 64 63 63 62 61 60 59 59 58 56 56 55 54 52 51 50 49 47 45 44 43 42 42 42 43 44 45 46 47 47 47 47
67 67 68 69 69 69 68 67 66 64 62 61 61 61 60 59 58 57 57 56 56 55 54 53 51 49 48 47 46 44 42 40 40 40 41 42 43 44 44 45 45 45 44 42
67 68 69 68 67 65 63 62 61 60 59 59 59 58 58 57 56 55 54 53 52 50 50 49 48 46 45 44 42 40 39 39 40 41 41 42 43 43 44 44 44 42 40 38
66 65 64 63 61 60 59 58 57 57 58 58 57 56 55 55 54 53 52 50 49 47 46 45 44 43 41 40 39 39 39 39 40 40 41 41 42 42 42 41 40 38 36 34
63 61 60 58 57 56 56 56 56 56 56 56 55 54 53 52 52 50 49 47 47 46 44 42 40 38 37 37 37 37 38 38 39 39 40 40 40 40 39 38 36 34 33 31
59 58 56 55 54 54 54 55 55 54 52 52 53 52 51 50 49 48 46 44 43 43 40 39 37 36 35 35 35 36 36 37 37 38 38 38 38 37 36 34 32 31 30 29
57 56 54 54 53 52 52 52 52 51 49 49 50 50 49 47 46 44 43 43 41 39 37 36 35 34 34 34 34 34 35 35 36 36 36 36 35 33 32 31 29 28 26 25
55 54 53 53 52 51 49 49 49 49 48 47 47 47 47 46 44 42 39 38 38 36 35 34 33 33 32 32 32 33 33 33 34 34 34 33 32 30 29 28 26 25 23 22
53 52 52 51 51 50 48 47 47 46 45 45 45 46 46 44 41 40 39 37 36 35 34 33 32 32 31 31 31 32 31 31 32 33 32 31 29 27 26 25 24 23 21 20
52 51 50 50 49 47 46 45 44 43 43 42 43 43 43 42 40 37 36 36 35 33 32 31 31 30 29 29 29 30 30 30 31 31 30 29 27 25 24 23 22 20 20 20
51 50 49 48 46 45 43 42 41 41 41 40 40 40 40 39 38 36 35 34 33 31 30 29 29 28 28 27 28 28 28 29 29 29 28 26 24 23 22 21 20 19 19 20
49 48 46 44 42 41 40 40 39 39 39 39 38 38 37 37 35 34 33 32 31 29 28 27 27 27 26 26 27 27 27 27 27 27 26 24 22 21 20 20 19 19 19 19

GEFSNGP_500_meanwind_072.txt.gz
Wind_Speed
29 29 30 28 27 29 30 30 30 26 27 27 29 31 34 36 38 41 43 46 48 50 53 55 58 60 63 65 68 70 72 74 75 76 77 77 76 76 75 75 74 73 71 70
29 30 30 29 28 29 29 30 31 30 29 31 32 35 37 40 42 45 47 50 52 55 58 60 63 65 68 71 73 75 77 78 79 79 79 78 77 76 75 74 72 71 70 69
31 30 31 30 29 29 30 30 31 31 32 34 36 38 41 43 46 49 52 54 57 60 62 65 68 71 73 76 78 80 81 81 81 80 79 78 76 75 73 72 70 69 68 67
34 32 31 30 29 30 30 31 32 33 35 37 39 42 44 47 50 53 56 59 62 64 67 70 72 75 77 80 81 82 83 82 81 80 78 76 74 72 70 69 67 66 65 64
36 33 30 29 31 31 32 33 34 36 38 40 43 45 48 51 54 57 60 63 66 69 72 74 77 79 81 82 83 83 82 81 80 78 75 73 70 68 67 65 64 63 61 60
35 35 32 32 32 33 35 36 37 39 41 44 47 50 52 55 58 60 63 67 70 73 76 78 80 82 83 83 83 82 81 79 76 73 70 68 66 64 63 61 60 59 58 57
35 36 35 35 35 36 37 39 41 42 45 48 51 54 57 60 63 66 69 72 74 77 79 81 82 83 83 83 82 80 78 74 70 67 65 63 62 60 58 57 56 55 54 53
36 37 38 38 38 39 40 42 44 47 49 52 55 58 61 64 67 69 72 74 76 78 80 81 82 82 82 80 79 76 72 68 65 63 61 60 59 57 56 55 54 53 51 50
36 38 40 39 40 42 43 46 48 51 54 57 59 62 64 67 70 72 74 76 78 80 81 80 80 80 79 77 74 70 67 64 61 59 58 57 56 55 53 52 52 50 48 47
38 39 41 42 43 45 47 50 52 55 58 60 63 66 68 70 72 74 75 77 79 80 80 79 77 76 74 72 69 66 63 60 58 57 54 53 52 52 50 49 48 47 46 44
40 40 42 44 46 48 50 53 56 58 61 64 67 69 70 72 73 75 76 78 79 79 78 77 75 71 69 67 65 62 59 57 56 54 52 50 49 49 47 46 46 44 43 42
41 42 44 46 48 50 53 56 58 61 64 66 68 70 71 73 74 76 77 78 78 77 75 73 70 67 65 63 61 59 56 54 52 50 48 47 46 44 44 44 43 43 42 43
43 44 46 49 51 54 56 59 62 64 66 68 69 70 72 74 75 76 76 76 75 73 71 68 65 63 61 59 57 55 54 51 49 48 47 46 44 43 40 39 40 41 42 43
46 48 50 52 55 57 60 62 64 66 67 68 70 71 73 74 75 75 74 73 71 69 66 64 61 59 58 56 54 53 51 49 48 47 45 43 42 41 41 40 39 39 40 41
49 51 53 56 59 61 62 63 64 66 67 69 70 72 73 74 73 72 70 69 67 64 62 60 58 56 55 53 52 51 48 47 45 44 43 42 41 41 41 40 40 39 38 39
53 55 57 59 60 61 62 64 65 67 68 70 71 72 72 72 71 68 67 65 63 60 58 56 55 53 52 51 50 48 45 44 44 43 42 41 40 40 39 39 39 39 38 38
55 57 58 59 60 61 63 65 66 68 69 70 71 72 71 69 67 65 63 61 58 56 55 54 52 50 49 49 48 45 43 42 42 42 41 40 39 38 38 39 38 37 37 36
56 57 58 59 61 62 63 65 67 68 69 70 70 69 67 65 64 62 59 56 54 52 52 51 50 48 47 47 45 43 42 41 41 40 39 38 37 37 38 37 36 35 34 33
56 57 58 60 62 63 65 66 67 68 68 68 67 65 63 62 61 59 56 53 52 50 48 47 47 46 45 44 43 42 41 40 39 39 38 36 35 36 36 35 34 33 32 31
56 58 59 61 63 65 66 67 67 66 65 65 64 62 60 59 57 55 53 50 50 48 46 45 45 44 42 41 41 40 39 38 38 37 35 34 34 34 34 33 32 32 31 30
57 59 60 62 64 64 65 65 65 63 62 62 61 59 57 54 53 52 49 46 45 45 44 44 43 42 41 40 39 38 37 36 35 35 33 33 32 32 32 31 31 30 30 29
59 60 62 63 64 64 63 63 63 62 60 58 57 55 53 51 49 47 46 45 43 43 42 42 41 40 39 38 36 35 34 34 33 32 32 31 31 31 30 30 29 29 28 28
60 61 62 63 63 63 61 61 60 59 58 56 54 52 50 48 46 45 42 42 42 41 40 40 39 37 36 35 34 33 33 32 31 31 30 30 30 29 29 28 28 27 28 29
59 60 61 62 62 62 60 59 58 57 55 53 51 49 47 45 43 42 42 41 41 40 39 38 37 35 34 33 32 32 31 31 30 29 29 29 28 28 28 27 27 27 28 28
59 60 60 61 61 60 59 57 55 53 51 48 46 45 44 43 41 40 40 40 39 38 38 37 36 34 33 32 31 30 29 29 29 28 28 27 27 27 26 26 26 27 27 26
58 59 59 59 59 58 56 54 51 48 46 43 41 41 40 40 40 40 39 38 38 37 37 36 34 32 31 30 30 29 28 28 27 27 27 26 26 26 25 25 25 25 25 24
57 57 57 56 55 54 51 49 46 43 42 41 39 38 38 38 38 38 38 38 37 36 35 34 32 31 29 29 28 27 27 26 26 26 26 25 25 24 23 23 23 22 22 23

GEFSNGP_500_meanwind_078.txt.gz
Wind_Speed
32 33 34 34 33 34 36 36 37 34 32 32 35 36 37 38 39 40 41 43 44 46 48 50 52 55 58 60 63 66 69 72 75 77 79 81 83 84 85 86 87 87 86 85
34 35 36 36 34 35 37 37 37 37 35 34 35 37 38 40 41 42 44 45 47 49 51 54 56 59 62 64 68 71 73 76 78 80 82 84 85 86 87 87 86 85 83 81
37 36 39 38 35 36 37 38 38 38 36 36 36 38 39 41 42 44 46 47 49 52 54 57 60 63 66 68 72 74 77 79 81 83 84 85 87 87 87 86 84 81 77 74
40 40 41 38 37 37 37 38 38 38 37 37 38 39 41 42 44 46 48 50 52 55 58 61 64 67 69 72 75 78 80 81 83 85 86 87 87 86 85 82 79 75 71 68
42 43 43 39 38 38 39 39 38 38 38 39 40 41 43 45 46 49 51 53 56 58 61 64 67 70 73 76 78 80 82 83 84 86 87 87 86 83 79 76 72 68 64 62
43 45 45 41 40 40 41 40 38 39 40 40 42 43 44 47 49 51 54 56 59 62 64 67 70 73 76 78 80 81 83 84 85 86 86 85 82 77 73 69 66 62 59 57
45 46 46 44 43 42 41 40 40 40 41 42 43 45 47 49 51 54 56 59 62 64 67 70 74 76 78 79 81 83 84 85 85 85 82 79 75 70 67 64 60 57 55 53
46 47 46 45 43 42 42 42 42 42 42 44 45 47 49 51 54 56 59 62 65 67 70 73 75 77 79 80 82 84 84 85 83 80 76 72 68 64 61 59 56 54 52 50
45 45 45 44 43 43 43 42 42 43 44 46 47 49 52 54 56 59 62 65 68 71 73 74 76 78 80 82 84 84 84 82 78 74 69 66 63 60 57 55 53 52 50 48
44 44 44 44 43 43 42 43 43 45 46 48 50 52 54 56 59 62 65 68 70 72 74 75 77 79 82 83 84 84 81 77 72 68 64 60 57 55 53 52 51 50 48 46
45 44 44 44 43 43 43 44 45 46 48 50 52 55 57 60 63 66 68 70 72 73 75 77 79 81 83 84 83 80 76 71 67 63 59 55 52 51 50 49 50 49 47 45
43 43 43 42 42 43 44 45 47 49 51 53 55 58 60 63 66 68 70 71 73 75 77 79 81 82 82 82 79 75 71 66 62 57 54 51 49 47 46 47 47 47 46 45
43 42 42 42 42 43 45 47 48 51 53 55 58 61 63 65 67 69 71 73 75 77 79 81 82 81 80 77 73 70 66 61 57 53 51 49 47 46 44 43 43 43 44 43
42 41 42 42 43 45 46 48 51 53 56 58 61 63 65 67 68 70 72 74 76 78 80 81 81 78 75 72 68 64 60 56 53 50 48 47 46 45 44 42 40 39 40 41
40 41 42 43 45 46 48 51 53 56 58 61 63 65 66 68 70 71 73 76 77 79 79 79 77 73 70 66 63 59 55 52 49 48 47 45 45 44 43 42 41 39 38 38
40 42 43 44 46 48 51 53 56 58 60 62 64 65 67 69 71 72 74 77 78 78 77 76 72 68 65 62 58 54 50 49 48 47 45 44 43 42 42 41 40 38 37 37
41 43 44 46 49 51 54 56 58 60 61 63 65 66 68 70 72 74 75 76 77 76 74 71 67 63 60 57 53 50 48 46 46 45 43 42 41 41 40 39 38 36 36 37
43 45 47 49 52 54 56 57 59 61 62 64 66 68 70 72 74 75 76 75 74 71 68 66 62 58 55 52 49 47 46 44 43 42 40 39 39 39 39 38 37 36 35 35
46 48 50 52 54 55 57 58 60 61 63 66 68 70 72 74 75 76 75 73 70 67 63 60 57 53 50 48 46 45 43 42 41 40 39 38 38 38 38 37 35 34 34 34
48 50 52 53 55 56 58 59 61 63 65 68 70 72 73 74 74 73 71 68 65 63 58 54 51 48 46 44 43 41 40 40 38 37 37 36 36 36 36 35 34 34 33 33
50 51 52 54 55 57 59 61 63 65 68 70 72 73 73 72 71 70 67 63 59 57 53 50 48 45 43 41 40 39 38 37 36 36 35 35 34 34 34 33 33 33 32 32
50 52 54 55 57 59 61 64 66 68 69 71 72 72 71 69 67 65 62 59 55 51 48 46 44 42 40 39 37 36 36 35 35 34 34 33 33 33 33 32 32 31 31 30
52 54 55 57 59 61 63 65 67 69 70 70 70 69 68 66 64 61 57 53 50 47 44 42 41 39 38 36 35 35 34 33 33 33 32 32 32 32 31 30 30 29 29 29
54 56 58 60 62 64 65 67 68 68 69 68 67 67 65 63 60 57 53 49 46 44 42 40 39 37 36 35 34 33 32 32 31 31 31 31 31 29 29 29 28 28 27 27
56 58 60 62 64 65 66 67 67 67 66 65 64 63 62 60 57 52 49 46 44 42 40 39 38 36 35 34 33 31 31 30 30 29 28 29 28 27 27 27 26 26 26 25
59 61 62 64 65 66 66 67 66 66 65 63 61 60 58 56 53 49 46 44 42 41 39 38 36 35 33 32 31 30 29 29 28 27 27 27 26 25 25 25 25 24 24 24
61 62 63 64 65 66 66 66 65 64 63 62 59 56 54 52 49 47 44 42 41 39 38 36 35 33 32 30 29 28 27 26 26 25 25 25 24 23 23 23 23 23 23 24

GEFSNGP_500_meanwind_084.txt.gz
Wind_Speed
28 28 29 29 29 29 30 31 33 32 32 32 35 37 38 38 38 39 40 40 41 41 42 43 44 46 48 49 51 54 56 58 61 63 66 69 71 74 77 79 81 83 85 87
30 30 31 31 30 30 31 32 34 35 34 34 37 38 39 39 39 40 40 41 42 43 44 45 47 48 50 52 54 57 59 61 64 67 69 72 74 77 79 81 83 86 87 88
33 32 35 34 30 31 33 33 35 36 36 37 38 39 39 40 41 41 42 43 44 44 46 47 48 50 52 55 57 59 62 64 67 70 72 75 77 79 82 84 86 87 87 87
36 35 37 35 33 33 35 35 36 38 38 39 40 40 41 41 42 42 43 44 45 46 47 49 51 53 55 57 59 62 64 67 70 72 75 77 80 82 84 86 87 87 85 82
38 39 39 36 35 36 37 37 37 39 39 40 41 42 42 42 43 43 44 45 46 47 49 51 53 55 57 59 62 65 67 70 72 75 77 80 82 84 86 87 86 84 80 76
40 41 42 39 38 38 40 39 38 39 40 41 42 42 42 43 43 43 44 45 46 48 50 52 55 57 59 62 65 67 69 72 74 77 80 82 84 86 86 86 83 79 73 68
40 42 43 42 41 40 41 41 40 40 41 41 41 41 42 42 43 44 45 46 48 50 52 55 57 59 62 64 67 69 72 74 76 79 82 84 85 85 84 81 77 72 67 62
41 43 44 43 42 42 42 42 42 42 41 41 41 42 43 43 44 44 46 48 50 52 54 57 59 62 64 67 69 71 74 76 78 81 83 84 84 82 79 75 70 65 60 56
42 43 43 43 44 43 43 43 43 43 42 42 43 43 43 43 44 45 47 50 52 54 56 59 62 64 66 69 71 73 75 78 80 82 83 82 81 77 72 68 64 60 56 53
42 42 43 44 44 44 44 44 43 43 43 43 43 43 43 44 46 47 49 51 54 56 58 61 63 66 69 71 73 75 77 80 82 82 81 78 75 71 67 63 60 56 54 51
42 42 43 44 44 44 44 44 44 44 44 43 43 44 45 46 48 49 51 54 56 58 61 63 65 68 70 73 75 77 80 81 81 80 78 74 70 66 62 59 57 54 51 49
41 42 43 43 43 44 44 44 44 44 43 43 44 45 46 47 49 51 54 56 58 61 63 65 67 70 72 75 77 80 81 80 79 77 74 69 65 60 57 55 53 51 49 47
42 42 43 43 43 44 44 44 43 43 43 44 45 46 47 49 51 53 56 59 61 62 64 67 69 71 74 77 79 80 80 79 77 73 69 64 60 56 52 49 48 47 46 45
42 42 43 43 44 43 43 43 43 44 44 45 46 47 48 50 53 56 58 60 62 64 66 68 71 74 76 78 79 79 78 75 72 68 64 60 56 53 49 47 44 42 42 43
43 43 43 43 43 43 43 43 43 43 44 45 47 48 51 53 55 57 59 61 63 65 68 71 73 75 77 78 78 76 74 71 67 63 59 55 52 49 47 45 43 41 40 39
42 42 42 42 41 42 42 42 42 43 45 46 48 51 53 55 57 58 61 63 65 67 70 73 75 76 77 77 76 73 69 66 62 58 54 51 49 47 45 43 42 41 39 38
39 39 40 40 40 40 41 42 43 44 46 48 50 52 54 56 58 60 62 65 67 70 73 75 76 76 76 75 72 69 65 60 57 54 51 49 47 45 43 42 41 40 38 37
36 37 37 38 39 40 41 42 44 46 48 50 51 53 55 58 60 62 64 66 69 71 73 75 75 75 73 71 68 65 60 56 53 50 48 46 44 43 42 41 40 39 37 36
35 36 37 38 39 41 42 44 46 47 50 51 53 55 57 60 62 64 66 69 71 72 73 74 74 72 69 67 64 60 55 52 50 48 46 44 42 41 41 39 38 37 35 34
36 37 38 39 41 42 43 45 47 49 51 53 55 57 59 61 64 66 68 70 72 74 74 73 71 69 66 63 59 55 52 50 48 46 44 42 40 39 38 37 36 34 33 32
37 38 39 40 42 43 45 47 49 50 53 55 57 59 61 64 67 69 71 71 72 73 72 70 68 65 63 59 55 52 49 47 45 43 41 39 38 37 36 34 33 33 32 31
37 39 40 41 43 45 47 48 50 53 55 57 60 63 65 67 69 70 71 72 72 71 69 66 63 61 58 55 51 49 47 45 43 40 38 37 36 35 33 32 31 31 30 29
38 40 41 43 44 46 49 51 53 56 58 61 63 66 68 69 71 71 71 70 70 68 65 61 59 57 55 51 48 46 44 42 40 38 36 35 34 32 30 29 29 29 28 28
40 42 43 45 47 49 52 54 57 59 62 64 66 68 70 70 70 71 70 68 66 63 61 58 56 54 51 47 45 43 41 39 37 35 33 32 31 30 29 28 28 28 28 28
42 44 47 49 51 53 56 58 60 62 65 66 68 69 70 71 70 69 67 65 62 60 58 55 53 50 47 44 42 40 38 36 34 32 31 30 29 28 28 27 27 26 27 27
46 48 51 53 55 57 59 62 64 66 67 68 68 68 69 69 68 66 64 62 60 57 55 51 48 45 43 41 39 37 35 33 31 30 29 28 28 27 26 26 25 26 26 26
51 53 55 57 59 61 63 65 66 67 68 68 67 67 66 65 64 63 60 58 56 53 50 47 44 42 40 38 36 34 32 31 29 28 27 27 26 25 25 25 24 25 25 25